{"data":{"norad_id":82458,"epoch":"2026-05-22T05:40:08.704704Z","epoch_age_seconds":317874,"freshness":"STALE","line1":"1 82458U          26142.23621186  .00002411  00000+0  10618-2 0  9996","line2":"2 82458  66.5111 124.9163 0063444 266.8576  92.5258 14.24081525632886","mean_motion":14.24081525,"eccentricity":0.0063444,"inclination_deg":66.5111,"raan_deg":124.9163,"arg_perigee_deg":266.8576,"mean_anomaly_deg":92.5258,"bstar":0.0010618,"rev_number":63288,"period_min":101.11780644019,"perigee_km":765.96792334608,"apogee_km":857.19683460201,"semimajor_km":7189.719378974,"source":"CELESTRAK","updated_at":"2026-05-25T13:38:11.189762Z"}}